Regional Weather Roundup
Issued by NWS Northern Indiana

Home | Current Version | Previous Version | Text Only | Print | Product List | Glossary On
Versions: 1 2 3 4 5 6 7 8 9 10 11 12 13 14 15 16 17 18 19 20 21 22 23 24 25 26 27 28 29 30 31 32 33 34 35 36 37 38 39 40 41 42 43 44 45 46 47 48 49 50
000
ASUS43 KIWX 250600
RWRIWX

KIWX WEATHER ROUNDUP
NATIONAL WEATHER SERVICE NORTHERN INDIANA
200 AM EDT WED MAY 25 2016

NOTE: "FAIR" INDICATES FEW OR NO CLOUDS BELOW 12,000 FEET WITH NO
SIGNIFICANT WEATHER AND/OR OBSTRUCTIONS TO VISIBILITY.

* THESE STATIONS ARE NOT UNDER NWS QUALITY CONTROL. THEY ALSO MAY NOT
  REPORT WEATHER SUCH AS PRECIPITATION OR FOG.

INZ001>027-250700-
NORTHERN INDIANA

CITY           SKY/WX    TMP DP  RH WIND       PRES   REMARKS
SOUTH BEND     CLOUDY    67  53  61 S7        30.02R
6HR MIN TEMP:  67; 6HR MAX TEMP:  81;

GOSHEN         CLEAR     66  50  56 S7        30.03R
6HR MIN TEMP:  66; 6HR MAX TEMP:  80;

ANGOLA*        CLEAR     57  52  82 CALM      30.04S
FORT WAYNE     MOCLDY    62  50  64 S7        30.05S
6HR MIN TEMP:  62; 6HR MAX TEMP:  78;

PERU/GRISSOM   CLEAR     64  54  68 S2        30.04R

$$
INZ028>050-250700-
CENTRAL INDIANA

CITY           SKY/WX    TMP DP  RH WIND       PRES   REMARKS
LAFAYETTE      PTCLDY    64  56  75 CALM      30.02S
6HR MIN TEMP:  62; 6HR MAX TEMP:  80;

KOKOMO*        CLEAR     61  52  72 S5        30.05S
6HR MIN TEMP:  61; 6HR MAX TEMP:  81;

MUNCIE*        CLEAR     67  52  58 S3        30.07R
6HR MIN TEMP:  67; 6HR MAX TEMP:  81;

INDIANAPOLIS   CLOUDY    67  55  65 SE3       30.03F
6HR MIN TEMP:  66; 6HR MAX TEMP:  77;


$$
MIZ043>046-050>051-056>058-064>065-071>073-077>080-250700-
SOUTHWEST LOWER MICHIGAN

CITY           SKY/WX    TMP DP  RH WIND       PRES   REMARKS
BATTLE CREEK   CLOUDY    66  50  56 S9        30.02R
6HR MIN TEMP:  65; 6HR MAX TEMP:  79;

BENTON HARBOR  CLOUDY    71  54  54 S6        29.99R
6HR MIN TEMP:  69; 6HR MAX TEMP:  83;

COLDWATER*     CLEAR     67  48  50 SW6       30.03R
6HR MIN TEMP:  66; 6HR MAX TEMP:  79;

HILLSDALE*     CLEAR     68  41  37 S7        30.04S
6HR MIN TEMP:  67; 6HR MAX TEMP:  79;

HOLLAND        PTCLDY    68  54  60 W7        29.99R
6HR MIN TEMP:  68; 6HR MAX TEMP:  78;

GRAND RAPIDS   PTCLDY    71  51  49 W6        29.99R
6HR MIN TEMP:  69; 6HR MAX TEMP:  83; 6HR PCP: TRACE;

KALAMAZOO      PTCLDY    64  52  64 S8        30.01S
6HR MIN TEMP:  63; 6HR MAX TEMP:  82;

STURGIS*       CLEAR     63  51  65 S5        30.02S
6HR MIN TEMP:  63; 6HR MAX TEMP:  79;

THREE RIVERS*  FAIR      65  52  62 S3        30.03R
6HR MIN TEMP:  65; 6HR MAX TEMP:  82;


$$
OHZ001>008-015>018-024>025-250700-
NORTHWEST OHIO

CITY           SKY/WX    TMP DP  RH WIND       PRES   REMARKS
DEFIANCE       CLEAR     64  45  49 S3        30.04S
6HR MIN TEMP:  64; 6HR MAX TEMP:  80;

FINDLAY        CLEAR     63  46  54 S9        30.06R
6HR MIN TEMP:  61; 6HR MAX TEMP:  79;

TOLEDO EXPRESS CLEAR     63  44  50 S6        30.04R
6HR MIN TEMP:  61; 6HR MAX TEMP:  80;

TOLEDO METCALF CLEAR     63  43  48 S7        30.04F
6HR MIN TEMP:  63; 6HR MAX TEMP:  82;

LIMA           CLEAR     63  48  58 S8        30.07S
6HR MIN TEMP:  63; 6HR MAX TEMP:  78;


$$
AND FOR LAKE MICHIGAN COASTAL AND OPEN LAKE BUOY OBSERVATIONS

STATION/POSITION TEMP    WIND        PRES    VSBY  WAVE
                 AIR SEA DIR/SP/G                  HT/PER
                 (F)     (DEG/KT/KT) (MB)    (MI)  (FT/S)
CALUMET HARBOR    75     190/  7/ 13 1014.7R
MICHIGAN CITY     74     170/ 13/ 15   N/A
BURNS HARBOR      73     190/ 12/ 14 1015.9S
SAINT JOSEPH      77     170/ 11/ 16 1015.9F
SOUTH LAKE BUOY   61 49  150/  6/  8 1014.5          0
4 MI NW BRIDGMAN  65 59  190/  8/ 10   N/A           1/ 2
MICHIGAN CITY     68 57  200/ 10/ 12   N/A           1

$$
&&




USA.gov is the U.S. government's official web portal to all federal, state and local government web resources and services.